Taylorville, IL

6:27 AM CST on November 18, 2017 (GMT -0600)
Taylorville Municipal

Weather History for KTAZ - September, 2012

Change the Weather History Date:

Tuesday, September 18, 2012

  Actual Average (KSPI) Record (KSPI)
Temperature  
Mean Temperature 53 °F -  
Max Temperature 64 °F 78 °F 95 °F (1893)
Min Temperature 42 °F 55 °F 35 °F (1901)
Degree Days  
Heating Degree Days 12    
Growing Degree Days 3 (Base 50)    
Moisture  
Dew Point 41 °F    
Average Humidity 66    
Maximum Humidity 100    
Minimum Humidity 32    
Precipitation  
Precipitation 0.00 in - - ()
Sea Level Pressure  
Sea Level Pressure 29.96 in    
Wind  
Wind Speed 11 mph (NW)    
Max Wind Speed 20 mph    
Max Gust Speed 26 mph    
Visibility 10 miles    
Events      
Averages and records for this station are not official NWS values.
T = Trace of Precipitation, MM = Missing Value Source: NWS Daily Summary

Daily Weather History Graph

Daily Weather History Graph

Search for Another Location

Airport or City:

Trip Planner

Search our weather history database for the weather conditions in past years. The results will help you decide how hot, cold, wet, or windy it might be!

Date:

Astronomy

Sep. 18, 2012 Rise Set
Actual Time 6:41 AM CDT 7:00 PM CDT
Civil Twilight 6:14 AM CDT 7:26 PM CDT
Nautical Twilight 5:43 AM CDT 7:58 PM CDT
Astronomical Twilight 5:10 AM CDT 8:30 PM CDT
Moon 9:40 AM CDT 8:24 PM CDT
Length of Visible Light 13h 12m
Length of Day
12h 18m
Waxing Crescent, 9% of the Moon is Illuminated
Sep 18
Waxing Crescent
Sep 22
First Quarter
Sep 29
Full
Oct 8
Last Quarter
Oct 15
New

Hourly Weather History & Observations

Time (CDT) Temp. Windchill Dew Point Humidity Pressure Visibility Wind Dir Wind Speed Gust Speed Precip Events Conditions
12:15 AM 57.2 °F - 55.4 °F 94% 29.83 in 10.0 mi NW 11.5 mph 19.6 mph N/A   Mostly Cloudy
12:35 AM 57.2 °F - 55.4 °F 94% 29.83 in 10.0 mi NNW 12.7 mph 20.7 mph N/A   Overcast
12:55 AM 57.2 °F - 55.4 °F 94% 29.83 in 10.0 mi NNW 15.0 mph 20.7 mph N/A   Overcast
1:15 AM 55.4 °F - 53.6 °F 94% 29.83 in 10.0 mi NNW 16.1 mph 19.6 mph N/A   Overcast
1:35 AM 55.4 °F - 51.8 °F 88% 29.84 in 10.0 mi NW 16.1 mph 20.7 mph N/A   Overcast
1:55 AM 55.4 °F - 51.8 °F 88% 29.84 in 10.0 mi NNW 17.3 mph 23.0 mph N/A   Overcast
2:15 AM 53.6 °F - 51.8 °F 94% 29.84 in 10.0 mi NNW 15.0 mph 20.7 mph N/A   Overcast
2:35 AM 51.8 °F - 50.0 °F 94% 29.85 in 10.0 mi NW 11.5 mph - N/A   Overcast
2:55 AM 51.8 °F - 48.2 °F 88% 29.85 in 10.0 mi NNW 11.5 mph 21.9 mph N/A   Overcast
3:15 AM 51.8 °F - 48.2 °F 88% 29.85 in 10.0 mi NNW 12.7 mph - N/A   Scattered Clouds
3:35 AM 50.0 °F - 46.4 °F 87% 29.86 in 10.0 mi NNW 10.4 mph - N/A   Clear
3:55 AM 48.2 °F - 46.4 °F 93% 29.86 in 10.0 mi NW 13.8 mph - N/A   Clear
4:15 AM 48.2 °F - 46.4 °F 93% 29.86 in 10.0 mi NNW 11.5 mph - N/A   Clear
4:35 AM 48.2 °F - 46.4 °F 93% 29.87 in 10.0 mi NNW 10.4 mph - N/A   Clear
4:55 AM 48.2 °F - 46.4 °F 93% 29.86 in 10.0 mi NNW 9.2 mph - N/A   Clear
5:15 AM 46.4 °F 41.9 °F 46.4 °F 100% 29.87 in 10.0 mi NW 9.2 mph - N/A   Clear
5:35 AM 46.4 °F 41.5 °F 46.4 °F 100% 29.88 in 10.0 mi NW 10.4 mph - N/A   Clear
5:55 AM 46.4 °F 41.5 °F 46.4 °F 100% 29.89 in 10.0 mi NW 10.4 mph 16.1 mph N/A   Clear
6:15 AM 46.4 °F 41.9 °F 46.4 °F 100% 29.90 in 10.0 mi NW 9.2 mph - N/A   Clear
6:35 AM 46.4 °F 41.5 °F 44.6 °F 93% 29.90 in 10.0 mi NW 10.4 mph - N/A   Clear
6:55 AM 46.4 °F 41.9 °F 44.6 °F 93% 29.91 in 10.0 mi NW 9.2 mph - N/A   Clear
7:15 AM 46.4 °F 41.5 °F 46.4 °F 100% 29.92 in 10.0 mi NW 10.4 mph - N/A   Clear
7:35 AM 48.2 °F - 46.4 °F 93% 29.92 in 10.0 mi NW 9.2 mph - N/A   Clear
7:55 AM 50.0 °F - 46.4 °F 87% 29.93 in 10.0 mi NNW 10.4 mph - N/A   Clear
8:15 AM 51.8 °F - 46.4 °F 82% 29.93 in 10.0 mi NW 12.7 mph - N/A   Clear
8:55 AM 53.6 °F - 46.4 °F 77% 29.94 in 10.0 mi NNW 13.8 mph 18.4 mph N/A   Clear
9:35 AM 55.4 °F - 44.6 °F 67% 29.95 in 10.0 mi NNW 12.7 mph - N/A   Clear
9:55 AM 57.2 °F - 44.6 °F 63% 29.96 in 10.0 mi NNW 13.8 mph - N/A   Clear
10:15 AM 59.0 °F - 44.6 °F 59% 29.96 in 10.0 mi NNW 10.4 mph 18.4 mph N/A   Clear
10:35 AM 60.8 °F - 41.0 °F 48% 29.96 in 10.0 mi NNW 15.0 mph 20.7 mph N/A   Clear
10:55 AM 60.8 °F - 41.0 °F 48% 29.96 in 10.0 mi NNW 15.0 mph 23.0 mph N/A   Clear
11:15 AM 60.8 °F - 39.2 °F 45% 29.96 in 10.0 mi NNW 19.6 mph 26.5 mph N/A   Scattered Clouds
11:35 AM 60.8 °F - 37.4 °F 42% 29.96 in 10.0 mi NNW 18.4 mph 24.2 mph N/A   Clear
11:55 AM 62.6 °F - 35.6 °F 37% 29.96 in 10.0 mi NW 19.6 mph 24.2 mph N/A   Clear
12:15 PM 62.6 °F - 35.6 °F 37% 29.97 in 10.0 mi NNW 19.6 mph - N/A   Scattered Clouds
12:35 PM 62.6 °F - 35.6 °F 37% 29.97 in 10.0 mi NW 18.4 mph 25.3 mph N/A   Scattered Clouds
12:55 PM 64.4 °F - 35.6 °F 34% 29.98 in 10.0 mi NNW 18.4 mph 24.2 mph N/A   Scattered Clouds
1:15 PM 62.6 °F - 35.6 °F 37% 29.97 in 10.0 mi NW 18.4 mph 23.0 mph N/A   Scattered Clouds
1:35 PM 64.4 °F - 33.8 °F 32% 29.97 in 10.0 mi NW 16.1 mph 24.2 mph N/A   Scattered Clouds
1:55 PM 64.4 °F - 33.8 °F 32% 29.97 in 10.0 mi NNW 13.8 mph 25.3 mph N/A   Scattered Clouds
2:15 PM 64.4 °F - 33.8 °F 32% 29.97 in 10.0 mi NW 15.0 mph 19.6 mph N/A   Scattered Clouds
2:35 PM 64.4 °F - 33.8 °F 32% 29.98 in 10.0 mi WNW 17.3 mph - N/A   Scattered Clouds
2:55 PM 64.4 °F - 33.8 °F 32% 29.98 in 10.0 mi NW 15.0 mph 18.4 mph N/A   Scattered Clouds
3:15 PM 62.6 °F - 33.8 °F 34% 29.98 in 10.0 mi WNW 13.8 mph - N/A   Clear
3:35 PM 64.4 °F - 33.8 °F 32% 29.98 in 10.0 mi NW 12.7 mph 20.7 mph N/A   Clear
3:55 PM 62.6 °F - 32.0 °F 32% 29.99 in 10.0 mi WNW 13.8 mph - N/A   Clear
4:15 PM 64.4 °F - 33.8 °F 32% 29.99 in 10.0 mi NW 10.4 mph - N/A   Clear
4:35 PM 62.6 °F - 32.0 °F 32% 29.99 in 10.0 mi NW 12.7 mph 16.1 mph N/A   Clear
4:55 PM 62.6 °F - 33.8 °F 34% 29.99 in 10.0 mi NW 11.5 mph - N/A   Clear
5:15 PM 64.4 °F - 33.8 °F 32% 30.00 in 10.0 mi NW 10.4 mph - N/A   Clear
5:35 PM 62.6 °F - 33.8 °F 34% 30.00 in 10.0 mi NW 10.4 mph - N/A   Clear
5:55 PM 62.6 °F - 33.8 °F 34% 30.00 in 10.0 mi NNW 6.9 mph - N/A   Clear
6:15 PM 60.8 °F - 33.8 °F 36% 30.01 in 10.0 mi NW 8.1 mph - N/A   Clear
6:35 PM 60.8 °F - 33.8 °F 36% 30.01 in 10.0 mi NW 5.8 mph - N/A   Clear
6:55 PM 55.4 °F - 35.6 °F 47% 30.01 in 10.0 mi WNW 4.6 mph - N/A   Clear
7:15 PM 53.6 °F - 35.6 °F 51% 30.02 in 10.0 mi WNW 3.5 mph - N/A   Clear
7:35 PM 53.6 °F - 37.4 °F 54% 30.02 in 10.0 mi Calm Calm - N/A   Clear
7:55 PM 50.0 °F - 39.2 °F 66% 30.03 in 10.0 mi Calm Calm - N/A   Clear
8:15 PM 50.0 °F - 39.2 °F 66% 30.04 in 10.0 mi Calm Calm - N/A   Clear
8:35 PM 50.0 °F - 39.2 °F 66% 30.04 in 7.0 mi Calm Calm - N/A   Clear
8:55 PM 50.0 °F - 39.2 °F 66% 30.05 in 10.0 mi Calm Calm - N/A   Clear
9:15 PM 48.2 °F - 39.2 °F 71% 30.05 in 10.0 mi Calm Calm - N/A   Clear
9:35 PM 48.2 °F - 39.2 °F 71% 30.05 in 10.0 mi Calm Calm - N/A   Clear
9:55 PM 46.4 °F - 39.2 °F 76% 30.06 in 10.0 mi Calm Calm - N/A   Clear
10:15 PM 44.6 °F - 39.2 °F 81% 30.07 in 10.0 mi Calm Calm - N/A   Clear
10:35 PM 42.8 °F - 39.2 °F 87% 30.07 in 10.0 mi Calm Calm - N/A   Clear
10:55 PM 42.8 °F - 39.2 °F 87% 30.07 in 10.0 mi Calm Calm - N/A   Clear
11:15 PM 42.8 °F - 41.0 °F 93% 30.08 in 10.0 mi Calm Calm - N/A   Clear
11:35 PM 42.8 °F - 41.0 °F 93% 30.08 in 10.0 mi Calm Calm - N/A   Clear
11:55 PM 42.8 °F - 39.2 °F 87% 30.08 in 10.0 mi Calm Calm - N/A   Clear